Location: Unspecified
(0.0000°N, 0.0000°E)
Time: 03:04:18
(UTC+00:00)

N. Korean satellite - Pass Details

Date: 30 January 2023
Orbit: 408 x 444 km, 97.3° (Epoch: 27 January)

Event Time Altitude Azimuth Distance (km) Brightness Sun altitude
Rises 05:20:12 0° 356° (N) 2,374 9.8 -12.6°
Reaches altitude 10° 05:22:19 10° 345° (NNW) 1,519 8.8 -12.1°
Maximum altitude 05:25:15 31° 281° (W) 777 7.0 -11.4°
Drops below altitude 10° 05:28:13 10° 216° (SW) 1,543 8.9 -10.7°
Sets 05:30:24 0° 206° (SSW) 2,419 10.0 -10.2°
